Wind_Speed
25 26 27 29 30 31 32 32 32 33 33 32 30 25 23 21 26 24 14 18 8 4 11 16 11 12 9 4 6 4 10 21 24 17 11 4 9 4 3 5 3 4 1 7 30
29 28 30 30 31 32 32 33 33 34 35 35 33 29 22 15 20 24 33 8 8 11 14 13 6 4 4 5 5 11 15 30 18 18 7 15 14 2 4 6 7 3 2 12 29
31 31 31 32 32 32 32 33 34 33 33 34 33 30 17 9 5 8 6 8 4 7 7 10 15 4 7 6 7 9 26 23 17 17 14 12 19 4 7 14 8 5 2 8 16
33 32 32 32 33 36 33 34 35 35 32 31 30 30 16 8 9 3 8 10 8 10 9 6 2 5 8 11 16 16 22 25 16 8 5 12 15 21 12 16 6 5 3 10 17
33 32 34 31 32 31 32 33 33 33 29 29 28 17 14 5 11 24 16 16 17 12 4 3 4 5 13 5 10 20 25 12 13 13 18 17 18 8 15 8 9 6 6 12 18
34 33 31 33 30 30 31 30 29 30 28 28 21 22 6 9 11 11 4 8 8 7 6 3 4 5 7 7 11 8 15 16 13 15 18 16 19 15 27 11 13 10 9 11 18
32 31 31 30 31 31 29 28 27 28 31 31 23 18 7 13 6 10 20 24 26 24 12 14 9 4 5 7 8 6 11 15 18 13 11 10 21 28 28 16 18 8 8 8 17
32 31 30 29 28 27 26 28 22 24 20 17 10 8 5 5 13 22 24 19 17 18 20 19 14 6 5 7 7 7 7 13 11 20 20 13 23 21 10 14 17 10 9 10 14
31 30 29 27 25 24 27 16 13 9 9 13 8 3 5 5 5 10 9 4 12 8 8 12 4 3 4 5 7 5 8 15 13 11 12 20 26 20 12 12 14 12 10 11 9
33 31 28 26 22 22 19 15 7 4 6 7 6 1 2 3 6 10 9 7 3 5 7 4 4 6 5 7 9 8 8 13 14 5 6 13 25 15 11 9 17 14 9 12 13
36 32 26 22 20 20 15 4 1 1 2 3 5 5 2 5 8 6 8 11 3 1 4 6 5 6 9 12 15 15 17 17 14 14 14 11 20 15 15 13 13 12 7 9 11
36 26 20 16 14 16 9 2 3 1 4 4 5 6 9 2 5 8 3 5 4 5 1 3 12 15 13 12 14 16 17 14 12 7 8 12 23 15 12 17 13 12 14 10 7
35 23 15 12 10 5 5 1 1 2 1 3 3 3 5 5 3 5 4 5 6 3 5 6 5 14 7 9 12 13 10 12 15 12 8 12 19 13 11 18 16 18 15 12 11
31 22 16 9 2 5 4 3 1 3 1 3 1 3 1 3 4 7 5 5 1 3 2 5 6 6 2 5 6 6 5 5 8 5 3 6 7 7 3 9 14 18 15 13 14
26 21 15 7 3 3 8 3 4 3 4 3 1 1 5 2 6 2 3 1 5 6 1 5 5 4 5 5 1 6 5 8 6 6 4 8 4 6 6 12 15 12 11 8 10
20 17 12 6 5 5 2 5 4 5 3 3 2 3 4 3 3 5 2 2 4 3 4 7 3 3 3 4 2 4 3 5 2 3 5 12 8 3 6 10 8 11 10 9 9
20 15 8 6 4 5 8 4 4 5 2 4 3 4 4 3 4 2 3 4 2 4 4 5 3 3 1 4 5 5 4 3 5 1 5 7 6 15 15 16 14 16 15 10 9
19 14 12 12 7 12 6 4 5 3 3 2 3 6 3 2 2 5 4 3 2 3 1 1 6 2 4 1 2 4 3 4 3 2 4 12 7 5 7 11 12 16 15 10 9
16 7 2 4 11 14 4 4 5 4 1 2 3 2 3 2 4 4 2 3 3 3 5 2 4 3 2 2 1 3 1 3 1 5 3 4 8 9 19 26 18 17 16 13 15
5 4 3 1 10 8 4 4 2 0 3 1 3 1 2 4 3 4 2 3 2 1 3 4 3 3 3 3 3 2 1 2 2 3 5 6 6 9 12 17 14 13 14 12 8
3 2 1 4 7 3 2 5 3 2 3 3 3 3 6 2 3 3 4 5 3 2 4 3 4 4 2 3 2 2 1 3 2 2 4 5 3 6 9 10 13 15 15 15 11
2 2 3 2 1 1 2 3 3 4 2 3 2 4 4 2 3 4 6 5 2 5 4 3 4 4 6 5 5 1 4 4 2 6 3 4 7 4 19 15 14 15 17 18 10
1 1 3 1 1 2 4 5 4 4 4 4 5 8 4 3 2 5 4 5 5 5 5 4 0 3 9 6 5 4 2 3 2 3 10 5 6 10 19 15 16 18 17 16 17
2 2 1 1 1 2 3 5 4 4 4 5 4 4 3 5 7 5 4 3 3 6 10 6 4 6 6 7 3 3 3 3 2 5 8 12 21 26 12 18 20 20 19 16 15
2 3 3 3 6 8 4 2 3 4 5 7 4 11 8 5 3 9 11 11 10 6 3 4 5 5 5 6 5 9 10 8 10 14 9 19 19 21 14 14 13 15 17 18 19
3 2 2 1 3 5 6 5 7 8 5 6 11 11 14 11 9 6 5 4 7 2 6 1 3 3 4 10 11 14 15 15 16 15 17 14 10 12 12 12 13 14 19 19 19
4 2 3 3 3 4 5 7 7 4 8 11 10 11 9 21 14 16 5 4 5 5 5 4 4 2 4 2 7 9 6 6 2 1 3 3 5 9 13 15 8 14 18 18 16
Wind_Direction
324 319 314 312 310 309 307 304 300 297 293 290 278 268 277 289 300 305 264 265 249 248 273 287 290 277 263 229 215 180 240 241 236 236 227 277 229 205 216 229 282 193 205 297 149
322 316 316 315 312 312 309 307 302 299 296 289 277 264 260 279 297 289 287 234 223 258 258 253 269 265 241 218 217 217 231 236 238 236 250 227 236 326 290 279 275 310 13 139 152
321 319 318 317 314 312 312 311 307 304 301 299 290 270 242 246 294 250 166 168 255 287 285 270 268 222 228 249 209 225 236 238 237 240 258 263 251 252 240 259 232 256 124 168 178
324 323 321 320 317 311 305 315 309 305 302 304 300 293 195 159 284 109 189 195 350 327 278 276 201 210 251 223 230 262 246 245 258 253 273 237 247 254 252 251 258 218 173 170 198
327 326 325 320 321 317 316 312 313 306 299 301 301 270 156 197 234 267 279 253 287 302 251 232 236 232 242 221 235 243 250 265 252 250 260 264 256 259 266 258 263 266 178 182 200
329 327 324 321 321 319 320 319 314 309 304 299 297 186 156 230 268 275 245 292 289 297 265 225 245 309 287 257 258 286 267 258 262 267 255 259 268 256 251 240 262 258 234 210 203
326 325 322 324 321 321 321 319 315 308 304 293 287 200 192 229 224 272 286 292 286 280 268 257 244 207 334 296 324 277 282 283 266 257 259 277 260 240 250 251 258 241 247 213 210
330 328 325 323 325 324 325 325 329 329 323 311 224 143 244 267 273 282 293 297 289 274 258 252 249 239 247 284 301 288 279 256 263 249 248 230 259 252 240 233 248 240 221 223 213
330 327 324 322 326 325 324 319 341 357 59 114 95 71 280 295 267 328 320 263 320 343 323 255 206 213 251 232 270 228 272 270 285 246 236 202 253 255 244 253 246 242 204 216 217
331 326 320 319 322 327 328 308 307 87 81 87 100 37 348 18 360 338 33 333 310 34 355 325 254 224 201 205 241 258 253 253 262 307 322 279 258 263 277 252 248 246 216 213 218
329 321 318 317 322 328 327 305 340 327 359 345 346 278 10 340 332 271 268 324 337 91 274 271 281 255 220 208 241 266 282 283 296 295 313 305 313 296 303 282 290 262 245 217 222
346 331 322 318 323 322 333 354 66 102 320 317 303 274 283 297 302 289 250 201 189 240 231 242 249 253 232 226 236 251 260 275 279 295 320 287 280 278 251 272 271 288 270 244 208
354 348 340 334 326 340 15 46 76 189 327 308 255 262 273 132 241 275 145 174 228 238 199 203 258 327 239 241 255 252 269 283 275 302 293 263 275 262 240 238 250 259 258 263 222
2 13 16 5 37 359 14 41 351 15 34 318 302 292 170 184 270 227 219 187 275 264 214 234 262 305 330 267 265 281 261 321 357 4 287 68 294 286 263 246 234 243 241 237 242
3 11 13 20 79 28 327 314 4 356 25 257 246 183 344 227 295 310 199 190 251 255 29 264 292 310 313 255 61 240 349 322 303 272 248 252 250 282 244 240 242 246 249 244 244
6 3 347 4 35 32 34 356 347 41 280 321 32 325 349 282 269 296 245 183 249 268 227 242 289 266 238 290 278 307 317 318 278 193 250 265 242 221 247 243 257 254 247 233 240
7 357 18 16 27 22 347 358 26 95 3 336 328 1 340 275 295 309 316 294 241 353 338 319 243 315 346 356 351 51 50 351 7 32 230 357 297 250 264 258 254 260 260 248 234
356 7 57 93 61 347 353 44 66 242 236 14 334 304 266 324 351 339 323 286 289 148 57 178 334 65 352 231 282 306 132 150 242 242 260 325 264 253 284 289 287 278 278 277 245
330 338 60 94 13 358 51 40 208 229 304 341 299 306 309 324 189 335 260 242 243 158 172 100 274 319 109 307 87 310 257 223 206 265 279 231 283 297 265 275 287 293 271 268 259
321 356 311 326 4 13 67 254 243 97 105 29 234 192 265 293 342 44 291 236 216 164 145 196 330 285 296 3 30 205 244 36 359 324 294 272 260 250 289 301 345 356 349 356 336
331 334 296 313 349 45 153 237 278 215 147 183 254 261 234 278 188 213 256 288 205 192 75 123 122 260 241 199 187 323 67 37 96 198 284 315 296 37 48 12 358 343 341 326 316
106 304 144 48 3 79 239 228 278 218 157 226 248 240 226 244 281 240 239 235 185 151 188 188 155 282 219 258 249 179 161 104 130 307 255 248 253 297 356 347 352 346 351 337 323
169 301 162 58 235 230 274 276 254 201 192 199 239 216 204 236 240 221 257 262 208 167 181 198 340 353 343 359 1 67 96 149 190 204 242 258 274 312 321 344 347 332 342 343 338
119 282 172 197 281 239 252 249 246 212 237 207 250 203 202 233 227 262 234 269 235 204 232 157 177 173 204 210 150 319 246 203 216 256 280 262 284 294 342 341 340 335 339 336 342
161 241 184 204 228 220 189 231 234 249 214 204 240 220 205 239 223 234 247 256 280 265 186 147 216 198 244 254 212 251 261 247 233 243 242 279 285 295 342 325 324 332 342 341 345
167 198 171 228 190 195 211 208 219 249 203 215 230 237 216 231 207 206 200 180 219 45 168 30 255 201 274 233 240 266 265 265 260 255 259 263 289 354 325 322 337 355 348 345 339
190 148 143 223 192 183 207 214 229 180 239 234 231 253 226 236 234 246 232 186 246 188 173 145 146 108 265 17 307 286 237 287 271 114 260 255 251 311 326 345 43 356 355 340 328
Height
812 809 805 801 798 795 792 789 786 784 781 779 777 775 775 775 770 767 762 753 751 749 750 751 751 752 754 753 749 746 747 730 731 734 730 722 723 715 711 714 712 709 712 708 704
808 805 800 797 793 790 786 783 780 777 775 772 770 768 769 771 769 761 746 748 749 749 750 750 749 749 752 748 747 743 732 717 721 723 727 721 721 721 719 717 713 711 707 707 709
803 799 795 792 788 784 781 777 774 771 769 767 765 763 763 767 767 748 743 746 749 748 747 747 746 747 748 747 742 731 717 710 714 715 717 720 718 718 718 718 713 711 710 713 715
797 793 789 786 782 778 774 771 767 765 762 761 759 760 756 763 761 742 744 746 746 747 746 745 744 744 740 741 733 733 717 716 716 715 717 717 715 711 713 707 705 705 706 710 715
793 788 784 780 776 771 768 764 761 758 756 754 753 752 753 758 745 742 744 744 742 745 744 744 744 740 734 732 731 726 716 713 713 714 714 712 710 714 707 703 701 703 705 707 708
788 783 778 774 770 766 762 759 756 752 750 748 747 746 746 750 740 739 740 740 739 742 741 741 740 739 737 733 730 718 716 712 710 710 711 713 708 711 687 696 697 699 701 701 701
783 779 774 769 765 761 758 754 750 746 743 740 743 738 745 736 736 736 737 738 739 740 741 740 742 742 737 729 723 722 721 711 707 708 707 706 704 690 680 692 693 697 697 696 695
780 775 769 765 762 757 754 750 746 741 736 732 734 738 740 737 736 734 734 732 732 734 736 735 737 737 736 731 725 725 717 716 703 704 700 712 690 679 684 690 689 691 693 692 691
776 770 765 761 757 754 750 747 744 741 738 735 738 741 738 735 735 733 730 732 732 732 733 733 733 735 733 735 732 724 722 711 702 692 694 697 685 680 683 683 685 683 688 687 688
772 766 761 756 753 750 747 745 742 742 740 738 740 744 739 737 736 735 735 736 735 733 738 739 739 735 735 735 735 721 721 709 704 697 695 695 679 682 679 680 679 677 681 680 681
767 761 756 753 750 747 746 744 746 745 743 741 744 740 739 741 737 735 735 736 733 732 743 743 742 734 733 733 728 730 723 721 714 706 706 712 705 692 689 684 682 676 678 675 677
762 755 752 750 748 746 745 745 748 751 746 742 741 742 740 741 741 733 732 737 734 737 733 738 737 724 719 726 728 724 722 722 714 700 705 707 688 690 693 687 679 675 670 672 671
761 753 749 748 747 746 746 748 749 750 748 744 742 741 739 739 741 736 732 734 736 734 734 737 724 717 716 719 719 720 721 718 711 700 698 697 686 682 676 674 671 668 666 664 666
762 754 750 748 749 748 748 750 750 750 751 745 742 739 738 737 739 730 727 731 729 732 727 732 721 719 718 717 713 719 704 703 704 713 716 710 707 676 670 665 663 661 660 658 655
763 757 753 750 752 752 754 751 751 753 774 740 741 736 736 739 736 728 727 729 733 728 728 726 720 719 720 713 711 720 710 711 709 712 715 702 714 689 670 664 658 656 656 655 652
764 760 757 755 753 756 755 754 755 767 776 744 739 740 741 736 735 729 727 727 726 728 727 727 717 717 716 711 712 712 715 716 712 714 731 702 703 696 670 662 656 650 649 649 649
765 761 758 757 761 759 758 757 768 768 749 748 750 745 748 742 737 730 731 734 739 750 748 729 722 718 715 718 718 719 732 782 770 749 766 708 697 679 658 650 650 646 642 643 644
767 764 762 760 762 761 759 767 778 759 753 754 754 750 749 738 738 738 739 741 731 736 770 768 752 721 720 722 722 728 732 774 769 778 744 706 708 684 661 652 651 646 641 638 641
769 767 765 765 763 761 765 787 771 760 755 757 755 756 749 739 749 747 741 744 735 734 756 784 745 728 722 720 724 734 741 730 749 735 743 723 699 674 660 647 648 644 636 636 634
770 768 768 767 765 763 775 769 758 757 761 760 760 754 766 751 752 770 754 736 732 732 741 750 773 734 725 724 726 728 729 757 761 776 734 709 706 685 665 652 653 654 648 641 637
769 769 769 768 768 771 787 780 760 758 758 764 761 759 759 759 763 764 755 739 731 734 741 755 764 749 738 733 741 744 740 752 756 760 729 715 689 679 683 677 674 667 659 650 645
768 769 769 770 773 778 771 769 756 757 760 758 761 760 757 752 764 761 750 739 729 734 740 744 770 766 752 738 737 727 763 765 747 777 764 737 711 681 679 677 678 672 667 658 648
769 770 770 772 776 775 771 769 758 757 758 758 754 753 751 754 766 757 743 731 732 735 749 747 773 792 757 753 741 750 736 757 753 746 745 735 704 675 689 688 685 677 670 665 661
770 766 772 772 769 768 767 767 763 751 751 751 751 749 753 754 751 753 741 729 726 732 726 734 755 767 773 778 786 775 775 745 749 750 736 723 706 682 696 695 686 677 672 668 664
765 762 761 776 766 764 765 767 758 753 750 750 749 746 745 751 752 743 738 736 730 727 728 741 750 759 754 749 759 751 754 753 751 735 737 709 702 690 707 699 690 685 680 669 662
763 760 760 757 761 762 763 756 753 747 746 746 744 732 741 743 737 741 736 740 740 738 736 755 747 743 745 740 738 735 727 726 721 719 713 708 701 703 701 693 687 686 680 671 666
753 754 755 749 750 754 757 749 745 743 737 732 732 734 734 726 727 725 726 729 733 742 750 754 750 760 754 737 732 738 721 711 707 712 713 714 710 705 698 691 691 688 682 676 671